www.pogodaiklimat.ru

Погода и климат >> Архив погоды >> Россия >> Коми >> Кедва-Вом


ПОГОДА в Кедва-Воме

  • Прогноз погоды в Кедва-Воме
  • Монитор погоды в Кедва-Воме

АРХИВ ПОГОДЫ в Кедва-Воме

Время (UTC), дата Ветер
(напр.,м/с)
 
Видим.   Явления Облачность Т
(С)
Тd
(С)
f
(%)
Тe
(С)
Тes
(С)
Комфортность P
(гПа)
Po
(гПа)
Тmin
(С)
Tmax
(С)
R
(мм)
R24
(мм)
S
(см)
12 13.05 С 3 20 км 8/0
[Ci ing]
+15.7 +2.5 41 +15 +20 1023.5 1016.0
15 13.05 С 1 20 км 6/0
[Ac trans Ci fib]
+14.4 +3.0 46 +15 +16 1023.9 1016.3 +16.7
03 14.05 В 2 20 км 10/10 870 м
[Sc]
+5.4 -0.2 67 +3 +3 1027.2 1019.4 +4.9
06 14.05 В 2 20 км 10/0
[Ac und]
+8.4 +1.9 64 +7 +10 1027.4 1019.7
09 14.05 В 2 20 км 10/0
[Ac und]
+10.0 +1.9 57 +9 +12 1027.2 1019.5
12 14.05 В 2 20 км 9/0
[Ac As]
+11.9 +1.8 50 +11 +14 1026.8 1019.2
15 14.05 Ю 2 20 км 8/0
[Ac As Ci]
+11.2 +0.6 48 +10 +11 1026.0 1018.4 +12.2
03 15.05 В 1 20 км 9/0
[Ac As]
+5.5 -2.4 57 +5 +6 1024.3 1016.5 +2.2
06 15.05 ЮВ 1 20 км 8/0
[Ac As]
+10.3 -0.5 47 +10 +15 1022.6 1015.0
09 15.05 Ю 4 20 км 8/0
[Ac As]
+13.7 +0.3 40 +13 +16 1020.7 1013.2
12 15.05 Ю 3 20 км 10/0
[Ac As]
+14.3 +1.2 41 +14 +15 1019.3 1011.8
15 15.05 Ю 3 20 км 10/10 840 м
[Sc]
+12.4 +4.3 58 +11 +11 1018.8 1011.2 +14.3
03 16.05 С 2 20 км 10/6 540 м
[Sc As op]
+2.9 +1.1 88 -0 0 1020.5 1012.7 +2.8 3
06 16.05 С 2 20 км 9/9 450 м
[Cb cap]
+4.2 +1.2 81 +2 +2 1020.3 1012.5
09 16.05 С 2 20 км 9/9 480 м
[Cb cap]
+8.6 -0.8 52 +7 +8 1018.8 1011.2
12 16.05 С 3 20 км 9/8 480 м
[Cb cap Ci fib]
+8.0 -1.7 50 +6 +7 1018.6 1010.9
15 16.05 СЗ 3 20 км 10/8 660 м
[Sc As op]
+6.7 -2.5 52 +4 +4 1018.7 1011.0 +9.2
03 17.05 ЮЗ 2 20 км {снег} 3/0
[Ac trans]
+3.8 -1.3 69 +1 +4 1013.1 1005.3 +2.0 0.0
06 17.05 З 2 20 км {снег} 8/8 600 м
[Sc]
+6.9 -3.7 47 +5 +7 1010.2 1002.6
09 17.05 ЮЗ 2 10 км слаб. дождь 10/8 400 м
[Sc As op]
+3.8 +2.0 88 +1 +1 1009.3 1001.6
12 17.05 СЗ 4
{11}
20 км {ливн. осадки, дождь} 8/4 600 м
[Cb cap Ci ing]
+5.7 +1.0 72 +2 +4 1008.7 1001.0
15 17.05 СЗ 2 20 км 9/8 540 м
[Cb cap Ci ing]
+5.1 -0.1 69 +3 +3 1008.7 1001.0 +7.0 2
03 18.05 СЗ 5 20 км в посл. час ливневой снег 10/10 540 м
[Cb cap]
+1.3 -0.9 85 -4 -4 1005.3 997.5 +0.5 0.4
06 18.05 СЗ 4 20 км {ливн. осадки} 10/10 900 м
[Cb cap]
+3.1 -2.4 67 -1 -1 1004.0 996.3
09 18.05 СЗ 5 20 км в посл. час ливневой снег 10/10 1200 м
[Cb cap]
+5.0 -3.3 55 +1 +1 1003.4 995.8
12 18.05 СЗ 5 20 км в посл. час ливневой снег 10/10 630 м
[Cb cap]
+2.1 +0.2 87 -3 -3 1004.2 996.5
15 18.05 СЗ 5
{10}
2000 м снег 10/8 360 м
[Sc As op]
+1.3 +0.2 92 -5 -5 1003.9 996.2 +5.2 2
03 19.05 СЗ 3
{10}
2000 м слаб. дождь со снегом {морось} 10/10 270 м
[St]
+1.6 +0.7 94 -3 -3 1006.5 998.7 +1.0 2
06 19.05 С 3 10 км дымка {снег} 10/10 270 м
[St]
+2.8 +1.7 92 -1 -1 1007.9 1000.2
09 19.05 С 2 20 км 9/9 450 м
[Cb cap]
+8.5 +3.7 72 +7 +8 1008.9 1001.3
12 19.05 С 3
{10}
20 км 9/8 540 м
[Cb cap Ci fib]
+11.1 -3.5 36 +10 +11 1009.8 1002.3
15 19.05 С 5
{10}
20 км 6/4 600 м
[Cb cap Ci fib]
+11.1 -5.3 31 +9 +9 1010.9 1003.4 +12.0 0.0
03 20.05 С 3 20 км ясно +2.9 -4.4 59 -1 +2 1014.4 1006.6 +1.4
06 20.05 СЗ 4
{10}
20 км 3/0
[Ci fib]
+5.0 -8.5 37 +2 +8 1015.1 1007.3
09 20.05 С 1
{11}
20 км 3/0
[Ci fib]
+7.4 -8.2 32 +7 +20 опасность
простуды
1015.7 1008.0

 

Местоположение метеостанции Кедва-Вом (Коми, Россия): широта 64.22 долгота 53.57 высота над уровнем моря 62 м.

В архиве по умолчанию представлена погода в Кедва-Воме за последнюю неделю. Архивные данные за месяц целиком и за предыдущие месяцы, начиная с января 2011 года, Вы можете получить, выбрав интересующий диапазон дат из раскрывающегося списка и нажав кнопку "Ввод!".


*Определитесь, кто Вы:
робот инопланетянин человек

Внимание! Время в таблицах - всемирное. Для получения местного времени необходимо прибавить поправку, которая равна 3 ч.

Смотрите также архив погоды в соседних городах и на ближайших метеорологических станциях:

Погода в Ухте (Коми, Россия) (76 км)
Погода в Ижме (Коми, Россия) (88 км)
Погода в Ираеле (Коми, Россия) (94 км)
Погода в Усть-Цильме (Коми, Россия) (148 км)
Погода в Вуктыле (Коми, Россия) (188 км)
Погода в Весляне (Коми, Россия) (191 км)
Погода в Печоре (Коми, Россия) (196 км)
Погода в Усть-Щугоре (Коми, Россия) (196 км)
Погода в Мутном Материке (Коми, Россия) (206 км)
Погода в Троицко-Печорском (Коми, Россия) (214 км)

Пояснения к столбцам:

Ветер - указаны скорость ветра в м/с - средняя за 10 мин, порывы в срок и между сроками (в фигурных скобках) и направление, откуда дует ветер: С - северный, СВ - северо-восточный, В - восточный, ЮВ - юго-восточный, Ю - южный, ЮЗ - юго-западный, З - западный, СЗ - северо-западный.
Видимость - горизонтальная дальность видимости в метрах или километрах. При видимости от 1 до 10 км при отсутствии осадков обычно наблюдается дымка, при ухудшении видимости до 1 км и менее - туман. В сухую погоду видимость может ухудшаться дымом, пылью или мглою.
Явления - указаны атмосферные явления, наблюдавшиеся в срок или в последний час перед сроком; фигурными скобками обозначены явления, наблюдавшиеся между сроками (за 1-3 часа до срока); квадратными скобками обозначены град или гололедные отложения с указанием их диаметра в мм.
Облачность - указаны через наклонную черту общая и нижняя облачность в баллах и высота нижней границы облаков в метрах; квадратными скобками обозначены формы облаков: Ci - перистые, Cs - перисто-слоистые, Cc - перисто-кучевые, Ac - высококучевые, As - высокослоистые, Sc - слоисто-кучевые, Ns - слоисто-дождевые, Cu - кучевые, Cb - кучево-дождевые. Подробнее классификацию облаков см. в Атласе облаков (PDF).
T - Температура воздуха - температура, измеренная на высоте 2 м над землей.
Td - Температура точки росы - температура, при понижении до которой содержащийся в воздухе водяной пар достигнет насыщения.
f - Относительная влажность воздуха - влажноcть воздуха, измеренная на высоте 2 м над землей.
Te - Эффективная температура - температура, которую ощущает одетый по сезону человек в тени. Характеристика душности погоды. При расчете учитывается влияние влажности воздуха и скорости ветра на теплоощущения человека.
Tes - Эффективная температура на солнце - температура, которую ощущает человек, с поправкой на солнечный нагрев. Характеристика знойности погоды. Зависит от высоты солнца над горизонтом, облачности и скорости ветра. Ночью, в пасмурную погоду, а также при ветре 12 м/с и более поправка равна нулю.
P - Атмосферное давление - приведенное к уровню моря атмосферное давление.
Po - Атмосферное давление - измеренное на уровне метеостанции атмосферное давление.
Tmin - Минимальная температура - минимум температуры воздуха на высоте 2 м над землей.
Tmax - Максимальная температура - максимум температуры воздуха на высоте 2 м над землей.
R - Количество осадков - Количество выпавших осадков за период времени, мм. При наведении курсора мыши на число - период времени, за который выпало указанное количество осадков.
R24 - Количество осадков - Количество выпавших осадков за 24 часа, мм.
S - Снежный покров - Высота снежного покрова, см. При наведении курсора мыши на число - состояние снежного покрова и степень покрытия местности в баллах.